weather.gov     
National Weather Service

Regional Weather Roundup
NWS Homepage
This page is being discontinued on March 12, 2014.
The same data is available at this site. Please update your bookmarks.
Thank you, and we apologize for the inconvenience.
Please send an email to SR-SRH.Webmaster@noaa.gov with any concerns.


Current Version
Previous Version:    01  02  03  04  05  06  07  08  09  10  11  12  13  14  15  16  17  18  19  20  21  22  23  24  25  26  27  28  29  30  
   31  32  33  34  35  36  37  38  39  40  41  42  43  44  45  46  47  48  49  50  51  52  53  54  
[Printable]
834
ASUS44 KJAN 300110
RWRMS

MISSISSIPPI HOURLY WEATHER ROUNDUP
NATIONAL WEATHER SERVICE JACKSON MS
800 PM CDT TUE JUL 29 2014

NOTE: "FAIR: INDICATES FEW OR NO CLOUDS BELOW 12,000 FEET WITH NO
SIGNIFICANT WEATHER AND/OR OBSTRUCTIONS TO VISIBILITY.

MSZ001>002-007>008-010>013-018>021-025>028-034>036-300200-
NORTHWEST MISSISSIPPI

CITY           SKY/WX    TMP DP  RH WIND       PRES   REMARKS
CLARKSDALE     FAIR      72  61  68 N3        30.10S
CLEVELAND      FAIR      73  63  69 N7        30.08S
GREENWOOD      CLEAR     73  61  65 CALM      30.08R
GREENVILLE     CLEAR     73  62  68 NE6       30.07S
GRENADA        FAIR      72  59  64 CALM      30.08F
OLIVE BRANCH   PTCLDY    70  59  68 N6        30.09F
OXFORD         FAIR      72  55  56 CALM      30.11S
TUNICA         CLEAR     72  59  64 NE3       30.10S
$$

MSZ003>006-009-014>017-022>024-029>033-037>039-300200-
NORTHEAST MISSISSIPPI

CITY           SKY/WX    TMP DP  RH WIND       PRES   REMARKS
BELMONT        FAIR      68  58  70 CALM      30.09S
COLUMBUS AFB   CLEAR     73  56  56 N7        30.08R
CORINTH        FAIR      70  59  68 CALM      30.09S
GOLDN TRIANGLE CLEAR     72  57  60 N6        30.08S
STARKVILLE     FAIR      72  55  56 CALM      30.07S
TUPELO         CLEAR     70  57  63 N5        30.08S
$$

MSZ040-058-300200-
CENTRAL MISSISSIPPI

CITY           SKY/WX    TMP DP  RH WIND       PRES   REMARKS
JACKSON INTL   CLEAR     77  59  53 N8        30.06R
JACKSON HAWKNS CLEAR     79  57  46 CALM      30.06S
MERIDIAN KEY   CLEAR     76  59  55 N8        30.04R
MERIDIAN NAS   CLEAR     76  57  51 N7        30.05R
RAYMOND        FAIR      75  72  88 CALM      30.06S
VICKSBURG      CLEAR     79  63  57 NE10      30.06R
$$

MSZ059>079-300200-
SOUTH MISSISSIPPI

CITY           SKY/WX    TMP DP  RH WIND       PRES   REMARKS
BROOKHAVEN     FAIR      79  66  65 N6        30.07R
COLUMBIA       FAIR      81  66  61 N5        30.02R
HATTIESBURG    PTCLDY    83  65  54 N6        30.01S
MCCOMB         CLEAR     80  66  62 N7        30.03S
NATCHEZ        CLEAR     79  68  69 NE5       30.05S
PINE BELT      CLEAR     81  64  57 N6        30.04R
$$

MSZ080>082-300200-
COASTAL MISSISSIPPI

CITY           SKY/WX    TMP DP  RH WIND       PRES   REMARKS
BAY ST LOUIS   CLEAR    N/A N/A N/A CALM      30.00S
BILOXI         CLEAR     84  65  53 NW2       29.98S
PASCAGOULA     CLEAR     77  69  76 W3        29.98S
GULFPORT       CLEAR     85  66  53 CALM      29.98S
$$




U.S. Dept. of Commerce
NOAA National Weather Service
1325 East West Highway
Silver Spring, MD 20910
E-mail: w-nws.webmaster@noaa.gov
Page last modified: May 16, 2007
NATIONAL WEATHER SERVICE: for Safety, for Work, for Fun - FOR LIFE